Time,TemperatureF,DewpointF,PressureIn,WindDirection,WindDirectionDegrees,WindSpeedMPH,WindSpeedGustMPH,Humidity,HourlyPrecipIn,Conditions,Clouds,dailyrainin,SoftwareType,DateUTC
2013-04-25 00:02:00,53.4,48.7,30.01,South,179,4.0,10.0,84,0.00,,,0.00,meteohub,2013-04-25 07:02:00,
2013-04-25 00:07:00,53.4,48.7,30.01,South,178,7.0,10.0,84,0.00,,,0.00,meteohub,2013-04-25 07:07:00,
2013-04-25 00:12:00,53.4,48.7,30.01,South,177,6.0,11.0,84,0.00,,,0.00,meteohub,2013-04-25 07:12:00,
2013-04-25 00:17:00,53.4,48.7,30.01,South,179,7.0,11.0,84,0.00,,,0.00,meteohub,2013-04-25 07:17:00,
2013-04-25 00:22:00,53.2,48.9,30.01,South,173,6.0,11.0,85,0.00,,,0.00,meteohub,2013-04-25 07:22:00,
2013-04-25 00:27:00,53.2,48.9,30.01,South,173,7.0,11.0,85,0.00,,,0.00,meteohub,2013-04-25 07:27:00,
2013-04-25 00:32:00,53.2,48.9,30.01,SSW,205,11.0,11.0,85,0.00,,,0.00,meteohub,2013-04-25 07:32:00,
2013-04-25 00:38:00,53.2,48.9,30.01,South,189,5.0,12.0,85,0.00,,,0.00,meteohub,2013-04-25 07:38:00,
2013-04-25 00:43:00,53.1,48.7,30.01,SSW,212,8.0,12.0,85,0.00,,,0.00,meteohub,2013-04-25 07:43:00,
2013-04-25 00:48:00,53.1,48.9,30.01,SSW,199,5.0,12.0,86,0.00,,,0.00,meteohub,2013-04-25 07:48:00,
2013-04-25 00:53:00,53.1,48.9,30.01,SSW,205,7.0,11.0,86,0.00,,,0.00,meteohub,2013-04-25 07:53:00,
2013-04-25 00:58:00,53.2,48.9,30.01,SSW,204,6.0,10.0,85,0.00,,,0.00,meteohub,2013-04-25 07:58:00,
2013-04-25 01:03:00,53.2,49.1,30.02,SSW,199,4.0,10.0,86,0.00,,,0.00,meteohub,2013-04-25 08:03:00,
2013-04-25 01:08:00,53.2,48.9,30.02,SSW,209,5.0,10.0,85,0.00,,,0.00,meteohub,2013-04-25 08:08:00,
2013-04-25 01:13:00,53.2,48.9,30.02,SW,223,4.0,10.0,85,0.00,,,0.00,meteohub,2013-04-25 08:13:00,
2013-04-25 01:18:00,53.2,48.9,30.02,SW,218,3.0,10.0,85,0.00,,,0.00,meteohub,2013-04-25 08:18:00,
2013-04-25 01:23:00,53.2,48.9,30.02,SW,217,5.0,7.0,85,0.00,,,0.00,meteohub,2013-04-25 08:23:00,
2013-04-25 01:28:00,53.2,48.9,30.02,SW,228,4.0,7.0,85,0.00,,,0.00,meteohub,2013-04-25 08:28:00,
2013-04-25 01:33:00,53.1,48.7,30.02,SW,226,3.0,7.0,85,0.00,,,0.00,meteohub,2013-04-25 08:33:00,
2013-04-25 01:38:00,53.1,48.7,30.02,SW,227,1.0,7.0,85,0.00,,,0.00,meteohub,2013-04-25 08:38:00,
2013-04-25 01:43:00,53.1,48.7,30.02,SW,227,1.0,7.0,85,0.00,,,0.00,meteohub,2013-04-25 08:43:00,
2013-04-25 01:48:00,53.1,48.7,30.02,SW,228,4.0,6.0,85,0.00,,,0.00,meteohub,2013-04-25 08:48:00,
2013-04-25 01:53:00,52.9,48.6,30.02,West,261,4.0,5.0,85,0.00,,,0.00,meteohub,2013-04-25 08:53:00,
2013-04-25 01:58:00,52.9,48.6,30.02,West,260,2.0,6.0,85,0.00,,,0.00,meteohub,2013-04-25 08:58:00,
2013-04-25 02:03:00,52.9,48.6,30.02,SW,233,6.0,6.0,85,0.00,,,0.00,meteohub,2013-04-25 09:03:00,
2013-04-25 02:08:00,52.9,48.6,30.02,West,260,6.0,7.0,85,0.00,,,0.00,meteohub,2013-04-25 09:08:00,
2013-04-25 02:13:00,53.1,48.7,30.02,WSW,242,6.0,9.0,85,0.00,,,0.00,meteohub,2013-04-25 09:13:00,
2013-04-25 02:18:00,53.1,48.7,30.02,WSW,243,6.0,9.0,85,0.00,,,0.00,meteohub,2013-04-25 09:18:00,
2013-04-25 02:23:00,53.2,48.9,30.02,WSW,240,5.0,10.0,85,0.00,,,0.00,meteohub,2013-04-25 09:23:00,
2013-04-25 02:28:00,53.2,48.9,30.02,SW,222,10.0,10.0,85,0.00,,,0.00,meteohub,2013-04-25 09:28:00,
2013-04-25 02:33:00,53.4,49.1,30.02,SW,235,5.0,10.0,85,0.00,,,0.00,meteohub,2013-04-25 09:33:00,
2013-04-25 02:38:00,53.4,49.1,30.02,SW,232,2.0,11.0,85,0.00,,,0.00,meteohub,2013-04-25 09:38:00,
2013-04-25 02:43:00,53.6,49.3,30.02,WSW,248,6.0,11.0,85,0.00,,,0.00,meteohub,2013-04-25 09:43:00,
2013-04-25 02:48:00,53.8,49.1,30.02,SW,223,6.0,11.0,84,0.00,,,0.00,meteohub,2013-04-25 09:48:00,
2013-04-25 02:53:00,53.8,49.1,30.02,SW,226,8.0,13.0,84,0.00,,,0.00,meteohub,2013-04-25 09:53:00,
2013-04-25 02:58:00,53.8,49.1,30.02,SW,227,9.0,13.0,84,0.00,,,0.00,meteohub,2013-04-25 09:58:00,
2013-04-25 03:03:00,54.0,49.3,30.02,WSW,244,10.0,14.0,84,0.00,,,0.00,meteohub,2013-04-25 10:03:00,
2013-04-25 03:08:00,54.0,49.3,30.02,WSW,251,11.0,17.0,84,0.00,,,0.00,meteohub,2013-04-25 10:08:00,
2013-04-25 03:13:00,54.0,49.3,30.02,SW,224,7.0,17.0,84,0.00,,,0.00,meteohub,2013-04-25 10:13:00,
2013-04-25 03:18:00,54.1,49.1,30.02,WSW,245,7.0,17.0,83,0.00,,,0.00,meteohub,2013-04-25 10:18:00,
2013-04-25 03:24:00,54.1,49.1,30.02,WSW,248,15.0,16.0,83,0.00,,,0.00,meteohub,2013-04-25 10:24:00,
2013-04-25 03:29:00,54.1,49.1,30.02,WSW,239,10.0,16.0,83,0.00,,,0.00,meteohub,2013-04-25 10:29:00,
2013-04-25 03:34:00,54.1,49.1,30.02,WSW,243,7.0,17.0,83,0.00,,,0.00,meteohub,2013-04-25 10:34:00,
2013-04-25 03:39:00,54.1,49.1,30.03,WSW,247,8.0,17.0,83,0.00,,,0.00,meteohub,2013-04-25 10:39:00,
2013-04-25 03:44:00,54.1,49.1,30.03,WSW,247,10.0,17.0,83,0.00,,,0.00,meteohub,2013-04-25 10:44:00,
2013-04-25 03:49:00,54.1,49.1,30.03,SW,231,11.0,14.0,83,0.00,,,0.00,meteohub,2013-04-25 10:49:00,
2013-04-25 03:54:00,54.1,49.1,30.03,SW,219,7.0,14.0,83,0.00,,,0.00,meteohub,2013-04-25 10:54:00,
2013-04-25 03:59:00,54.1,49.1,30.03,WSW,240,13.0,17.0,83,0.00,,,0.00,meteohub,2013-04-25 10:59:00,
2013-04-25 04:04:00,54.1,49.1,30.03,SW,218,8.0,17.0,83,0.00,,,0.00,meteohub,2013-04-25 11:04:00,
2013-04-25 04:09:00,54.1,49.1,30.03,WSW,246,8.0,17.0,83,0.00,,,0.00,meteohub,2013-04-25 11:09:00,
2013-04-25 04:14:00,54.1,49.1,30.03,SW,234,12.0,17.0,83,0.00,,,0.00,meteohub,2013-04-25 11:14:00,
2013-04-25 04:19:00,54.1,49.1,30.03,WSW,247,11.0,17.0,83,0.00,,,0.00,meteohub,2013-04-25 11:19:00,
2013-04-25 04:24:00,54.0,48.6,30.04,WSW,237,9.0,15.0,82,0.00,,,0.00,meteohub,2013-04-25 11:24:00,
2013-04-25 04:29:00,54.0,48.9,30.03,SW,230,9.0,15.0,83,0.00,,,0.00,meteohub,2013-04-25 11:29:00,
2013-04-25 04:34:00,54.0,48.9,30.04,SW,221,6.0,15.0,83,0.00,,,0.00,meteohub,2013-04-25 11:34:00,
2013-04-25 04:39:00,54.1,49.1,30.04,SW,218,6.0,16.0,83,0.00,,,0.00,meteohub,2013-04-25 11:39:00,
2013-04-25 04:44:00,54.1,49.1,30.04,SW,227,6.0,16.0,83,0.00,,,0.00,meteohub,2013-04-25 11:44:00,
2013-04-25 04:49:00,54.1,49.1,30.04,SW,228,5.0,16.0,83,0.00,,,0.00,meteohub,2013-04-25 11:49:00,
2013-04-25 04:54:00,54.1,49.1,30.04,WSW,247,11.0,12.0,83,0.00,,,0.00,meteohub,2013-04-25 11:54:00,
2013-04-25 04:59:00,54.1,49.1,30.04,WSW,239,9.0,11.0,83,0.00,,,0.00,meteohub,2013-04-25 11:59:00,
2013-04-25 05:04:00,54.0,49.3,30.04,SW,233,8.0,12.0,84,0.00,,,0.00,meteohub,2013-04-25 12:04:00,
2013-04-25 05:09:00,54.0,49.3,30.04,WSW,258,7.0,13.0,84,0.00,,,0.00,meteohub,2013-04-25 12:09:00,
2013-04-25 05:14:00,54.0,48.9,30.04,SW,225,9.0,13.0,83,0.00,,,0.00,meteohub,2013-04-25 12:14:00,
2013-04-25 05:19:00,54.0,48.9,30.04,WSW,255,7.0,13.0,83,0.00,,,0.00,meteohub,2013-04-25 12:19:00,
2013-04-25 05:24:00,54.0,48.9,30.04,WSW,239,8.0,12.0,83,0.00,,,0.00,meteohub,2013-04-25 12:24:00,
2013-04-25 05:29:00,54.0,48.9,30.04,WSW,237,2.0,13.0,83,0.00,,,0.00,meteohub,2013-04-25 12:29:00,
2013-04-25 05:34:00,54.1,49.1,30.04,WSW,243,7.0,13.0,83,0.00,,,0.00,meteohub,2013-04-25 12:34:00,
2013-04-25 05:39:00,54.0,48.9,30.04,WSW,237,6.0,13.0,83,0.00,,,0.00,meteohub,2013-04-25 12:39:00,
2013-04-25 05:44:00,54.0,48.9,30.04,WSW,251,4.0,12.0,83,0.00,,,0.00,meteohub,2013-04-25 12:44:00,
2013-04-25 05:49:00,54.0,48.9,30.05,West,264,4.0,12.0,83,0.00,,,0.00,meteohub,2013-04-25 12:49:00,
2013-04-25 05:54:00,54.0,48.9,30.05,WSW,241,7.0,12.0,83,0.00,,,0.00,meteohub,2013-04-25 12:54:00,
2013-04-25 05:59:00,54.0,48.9,30.05,WSW,239,7.0,12.0,83,0.00,,,0.00,meteohub,2013-04-25 12:59:00,
2013-04-25 06:05:00,54.0,48.9,30.05,WSW,243,9.0,12.0,83,0.00,,,0.00,meteohub,2013-04-25 13:05:00,
2013-04-25 06:10:00,54.0,48.9,30.05,WSW,241,10.0,12.0,83,0.00,,,0.00,meteohub,2013-04-25 13:10:00,
2013-04-25 06:15:00,54.0,48.9,30.05,WSW,247,7.0,13.0,83,0.00,,,0.00,meteohub,2013-04-25 13:15:00,
2013-04-25 06:20:00,54.0,48.9,30.05,WSW,252,11.0,13.0,83,0.00,,,0.00,meteohub,2013-04-25 13:20:00,
2013-04-25 06:25:00,53.8,49.1,30.06,WSW,238,6.0,12.0,84,0.00,,,0.00,meteohub,2013-04-25 13:25:00,
2013-04-25 06:30:00,53.8,49.1,30.06,WSW,240,6.0,12.0,84,0.00,,,0.00,meteohub,2013-04-25 13:30:00,
2013-04-25 06:35:00,53.8,49.1,30.06,West,262,10.0,14.0,84,0.00,,,0.00,meteohub,2013-04-25 13:35:00,
2013-04-25 06:40:00,53.8,49.1,30.06,WSW,252,9.0,14.0,84,0.00,,,0.00,meteohub,2013-04-25 13:40:00,
2013-04-25 06:45:00,53.6,48.9,30.06,WSW,239,10.0,14.0,84,0.00,,,0.00,meteohub,2013-04-25 13:45:00,
2013-04-25 06:50:00,53.4,48.7,30.06,SW,232,7.0,16.0,84,0.00,,,0.00,meteohub,2013-04-25 13:50:00,
2013-04-25 06:55:00,53.4,48.7,30.06,WSW,251,6.0,16.0,84,0.00,,,0.00,meteohub,2013-04-25 13:55:00,
2013-04-25 07:00:00,53.6,48.9,30.07,West,260,7.0,16.0,84,0.00,,,0.00,meteohub,2013-04-25 14:00:00,
2013-04-25 07:05:00,53.6,48.9,30.07,SW,234,5.0,15.0,84,0.00,,,0.00,meteohub,2013-04-25 14:05:00,
2013-04-25 07:10:00,53.6,49.3,30.07,WSW,256,4.0,13.0,85,0.00,,,0.00,meteohub,2013-04-25 14:10:00,
2013-04-25 07:15:00,53.8,49.1,30.07,WSW,246,7.0,10.0,84,0.00,,,0.00,meteohub,2013-04-25 14:15:00,
2013-04-25 07:20:00,53.6,48.9,30.07,WSW,237,6.0,10.0,84,0.00,,,0.00,meteohub,2013-04-25 14:20:00,
2013-04-25 07:25:00,53.4,48.7,30.08,WSW,253,7.0,15.0,84,0.00,,,0.00,meteohub,2013-04-25 14:25:00,
2013-04-25 07:30:00,53.4,48.4,30.08,West,268,11.0,15.0,83,0.00,,,0.00,meteohub,2013-04-25 14:30:00,
2013-04-25 07:35:00,53.4,48.7,30.08,WSW,241,9.0,15.0,84,0.00,,,0.00,meteohub,2013-04-25 14:35:00,
2013-04-25 07:40:00,53.6,48.6,30.08,West,262,7.0,14.0,83,0.00,,,0.00,meteohub,2013-04-25 14:40:00,
2013-04-25 07:45:00,53.8,48.7,30.09,WSW,247,5.0,14.0,83,0.00,,,0.00,meteohub,2013-04-25 14:45:00,
2013-04-25 07:50:00,54.0,49.3,30.09,WSW,241,8.0,11.0,84,0.00,,,0.00,meteohub,2013-04-25 14:50:00,
2013-04-25 07:55:00,53.8,49.1,30.09,WSW,258,7.0,12.0,84,0.00,,,0.00,meteohub,2013-04-25 14:55:00,
2013-04-25 08:00:00,53.8,49.1,30.09,West,275,8.0,12.0,84,0.00,,,0.00,meteohub,2013-04-25 15:00:00,
2013-04-25 08:05:00,53.8,49.1,30.09,West,267,9.0,12.0,84,0.00,,,0.00,meteohub,2013-04-25 15:05:00,
2013-04-25 08:10:00,53.8,48.7,30.09,WSW,245,9.0,13.0,83,0.00,,,0.00,meteohub,2013-04-25 15:10:00,
2013-04-25 08:15:00,53.8,49.1,30.09,West,262,9.0,13.0,84,0.00,,,0.00,meteohub,2013-04-25 15:15:00,
2013-04-25 08:20:00,53.8,49.1,30.09,West,264,6.0,12.0,84,0.00,,,0.00,meteohub,2013-04-25 15:20:00,
2013-04-25 08:25:00,54.0,49.3,30.09,West,262,6.0,12.0,84,0.00,,,0.00,meteohub,2013-04-25 15:25:00,
2013-04-25 08:30:00,54.0,49.3,30.09,WSW,254,4.0,12.0,84,0.00,,,0.00,meteohub,2013-04-25 15:30:00,
2013-04-25 08:35:00,54.1,49.1,30.10,West,272,5.0,11.0,83,0.00,,,0.00,meteohub,2013-04-25 15:35:00,
2013-04-25 08:40:00,54.1,49.5,30.10,West,266,4.0,9.0,84,0.00,,,0.00,meteohub,2013-04-25 15:40:00,
2013-04-25 08:45:00,54.1,49.1,30.10,SW,235,4.0,9.0,83,0.00,,,0.00,meteohub,2013-04-25 15:45:00,
2013-04-25 08:51:00,54.1,49.5,30.10,WSW,251,8.0,9.0,84,0.00,,,0.00,meteohub,2013-04-25 15:51:00,
2013-04-25 08:56:00,54.1,49.5,30.10,WSW,238,5.0,10.0,84,0.00,,,0.00,meteohub,2013-04-25 15:56:00,
2013-04-25 09:01:00,54.1,49.1,30.10,SW,232,3.0,10.0,83,0.00,,,0.00,meteohub,2013-04-25 16:01:00,
2013-04-25 09:06:00,54.1,49.1,30.10,WSW,243,4.0,10.0,83,0.00,,,0.00,meteohub,2013-04-25 16:06:00,
2013-04-25 09:11:00,54.5,49.5,30.10,WSW,248,8.0,9.0,83,0.00,,,0.00,meteohub,2013-04-25 16:11:00,
2013-04-25 09:16:00,54.5,49.1,30.10,SSW,209,6.0,9.0,82,0.00,,,0.00,meteohub,2013-04-25 16:16:00,
2013-04-25 09:21:00,54.3,48.9,30.11,SW,236,6.0,10.0,82,0.00,,,0.00,meteohub,2013-04-25 16:21:00,
2013-04-25 09:26:00,54.7,49.3,30.10,SSW,210,5.0,10.0,82,0.00,,,0.00,meteohub,2013-04-25 16:26:00,
2013-04-25 09:31:00,54.7,49.3,30.11,WSW,248,10.0,14.0,82,0.00,,,0.00,meteohub,2013-04-25 16:31:00,
2013-04-25 09:36:00,54.7,49.3,30.11,South,191,6.0,14.0,82,0.00,,,0.00,meteohub,2013-04-25 16:36:00,
2013-04-25 09:41:00,54.7,50.0,30.11,SSW,205,8.0,14.0,84,0.00,,,0.00,meteohub,2013-04-25 16:41:00,
2013-04-25 09:46:00,54.5,49.8,30.12,SSW,199,7.0,12.0,84,0.00,,,0.00,meteohub,2013-04-25 16:46:00,
2013-04-25 09:51:00,54.7,49.6,30.12,SSW,201,7.0,12.0,83,0.00,,,0.00,meteohub,2013-04-25 16:51:00,
2013-04-25 09:56:00,54.9,49.8,30.12,SSW,204,4.0,12.0,83,0.00,,,0.00,meteohub,2013-04-25 16:56:00,
2013-04-25 10:01:00,55.0,50.0,30.12,SW,226,6.0,12.0,83,0.00,,,0.00,meteohub,2013-04-25 17:01:00,
2013-04-25 10:06:00,54.9,49.8,30.12,SSW,209,6.0,13.0,83,0.00,,,0.00,meteohub,2013-04-25 17:06:00,
2013-04-25 10:11:00,54.9,49.5,30.12,SSW,199,6.0,13.0,82,0.00,,,0.00,meteohub,2013-04-25 17:11:00,
2013-04-25 10:16:00,54.7,49.3,30.12,WSW,242,9.0,11.0,82,0.00,,,0.00,meteohub,2013-04-25 17:16:00,
2013-04-25 10:21:00,54.7,49.6,30.12,SW,223,10.0,13.0,83,0.00,,,0.00,meteohub,2013-04-25 17:21:00,
2013-04-25 10:26:00,54.9,49.5,30.12,SW,224,5.0,13.0,82,0.00,,,0.00,meteohub,2013-04-25 17:26:00,
2013-04-25 10:31:00,54.7,49.6,30.13,WSW,241,8.0,13.0,83,0.00,,,0.00,meteohub,2013-04-25 17:31:00,
2013-04-25 10:36:00,54.7,49.3,30.13,SW,232,8.0,12.0,82,0.00,,,0.00,meteohub,2013-04-25 17:36:00,
2013-04-25 10:41:00,54.7,49.3,30.13,WSW,238,14.0,14.0,82,0.00,,,0.00,meteohub,2013-04-25 17:41:00,
2013-04-25 10:46:00,54.7,49.3,30.13,WSW,238,9.0,14.0,82,0.00,,,0.00,meteohub,2013-04-25 17:46:00,
2013-04-25 10:51:00,54.9,49.5,30.13,SW,221,10.0,14.0,82,0.00,,,0.00,meteohub,2013-04-25 17:51:00,
2013-04-25 10:56:00,54.9,49.5,30.13,WSW,243,8.0,14.0,82,0.00,,,0.00,meteohub,2013-04-25 17:56:00,
2013-04-25 11:01:00,55.2,49.5,30.13,SW,219,7.0,12.0,81,0.00,,,0.00,meteohub,2013-04-25 18:01:00,
2013-04-25 11:06:00,55.2,49.5,30.13,WSW,238,10.0,12.0,81,0.00,,,0.00,meteohub,2013-04-25 18:06:00,
2013-04-25 11:11:00,55.2,49.5,30.14,WSW,245,8.0,12.0,81,0.00,,,0.00,meteohub,2013-04-25 18:11:00,
2013-04-25 11:16:00,55.0,49.3,30.14,SSW,207,6.0,14.0,81,0.00,,,0.00,meteohub,2013-04-25 18:16:00,
2013-04-25 11:21:00,55.0,49.3,30.14,SSW,213,9.0,14.0,81,0.00,,,0.00,meteohub,2013-04-25 18:21:00,
2013-04-25 11:26:00,55.2,49.5,30.14,SW,235,8.0,14.0,81,0.00,,,0.00,meteohub,2013-04-25 18:26:00,
2013-04-25 11:32:00,55.0,49.3,30.14,SSW,204,7.0,12.0,81,0.00,,,0.00,meteohub,2013-04-25 18:32:00,
2013-04-25 11:37:00,55.0,49.3,30.13,SW,222,9.0,12.0,81,0.00,,,0.00,meteohub,2013-04-25 18:37:00,
2013-04-25 11:42:00,55.0,49.3,30.13,SW,233,10.0,14.0,81,0.00,,,0.00,meteohub,2013-04-25 18:42:00,
2013-04-25 11:47:00,55.2,49.1,30.14,SW,235,11.0,15.0,80,0.00,,,0.00,meteohub,2013-04-25 18:47:00,
2013-04-25 11:52:00,55.2,49.1,30.14,WSW,237,9.0,15.0,80,0.00,,,0.00,meteohub,2013-04-25 18:52:00,
2013-04-25 11:57:00,55.4,48.9,30.14,SW,231,7.0,14.0,79,0.00,,,0.00,meteohub,2013-04-25 18:57:00,
2013-04-25 12:02:00,55.6,49.1,30.14,WSW,247,9.0,14.0,79,0.00,,,0.00,meteohub,2013-04-25 19:02:00,
2013-04-25 12:07:00,55.8,49.3,30.14,WSW,244,12.0,16.0,79,0.00,,,0.00,meteohub,2013-04-25 19:07:00,
2013-04-25 12:12:00,55.2,49.1,30.14,WSW,238,11.0,16.0,80,0.00,,,0.00,meteohub,2013-04-25 19:12:00,
2013-04-25 12:17:00,55.2,49.5,30.14,WSW,247,9.0,16.0,81,0.00,,,0.00,meteohub,2013-04-25 19:17:00,
2013-04-25 12:22:00,55.2,49.1,30.13,SSW,210,9.0,15.0,80,0.00,,,0.00,meteohub,2013-04-25 19:22:00,
2013-04-25 12:27:00,55.6,49.5,30.13,WSW,245,9.0,15.0,80,0.00,,,0.00,meteohub,2013-04-25 19:27:00,
2013-04-25 12:32:00,55.8,49.6,30.13,SW,218,8.0,15.0,80,0.00,,,0.00,meteohub,2013-04-25 19:32:00,
2013-04-25 12:37:00,55.8,49.6,30.13,SW,230,9.0,14.0,80,0.00,,,0.00,meteohub,2013-04-25 19:37:00,
2013-04-25 12:42:00,55.4,49.3,30.13,SSW,206,7.0,13.0,80,0.00,,,0.00,meteohub,2013-04-25 19:42:00,
2013-04-25 12:47:00,55.8,50.0,30.13,SW,217,10.0,14.0,81,0.00,,,0.00,meteohub,2013-04-25 19:47:00,
2013-04-25 12:52:00,55.8,49.6,30.13,SSW,208,7.0,14.0,80,0.00,,,0.00,meteohub,2013-04-25 19:52:00,
2013-04-25 12:57:00,55.2,49.1,30.13,WSW,247,9.0,14.0,80,0.00,,,0.00,meteohub,2013-04-25 19:57:00,
2013-04-25 13:02:00,55.8,49.6,30.13,South,177,9.0,14.0,80,0.00,,,0.00,meteohub,2013-04-25 20:02:00,
2013-04-25 13:07:00,55.8,49.3,30.13,SW,227,8.0,14.0,79,0.00,,,0.00,meteohub,2013-04-25 20:07:00,
2013-04-25 13:12:00,55.8,49.6,30.14,WSW,248,10.0,15.0,80,0.00,,,0.00,meteohub,2013-04-25 20:12:00,
2013-04-25 13:17:00,56.1,50.0,30.14,SW,226,7.0,15.0,80,0.00,,,0.00,meteohub,2013-04-25 20:17:00,
2013-04-25 13:22:00,56.7,49.8,30.14,WSW,239,12.0,15.0,78,0.00,,,0.00,meteohub,2013-04-25 20:22:00,
2013-04-25 13:27:00,56.7,49.8,30.14,SSW,208,8.0,14.0,78,0.00,,,0.00,meteohub,2013-04-25 20:27:00,
2013-04-25 13:33:00,57.2,49.6,30.14,SW,220,8.0,15.0,76,0.00,,,0.00,meteohub,2013-04-25 20:33:00,
2013-04-25 13:38:00,57.4,49.5,30.14,SSW,213,8.0,15.0,75,0.00,,,0.00,meteohub,2013-04-25 20:38:00,
2013-04-25 13:43:00,57.6,50.0,30.14,SW,218,9.0,16.0,76,0.00,,,0.00,meteohub,2013-04-25 20:43:00,
2013-04-25 13:48:00,57.9,50.4,30.14,SW,231,7.0,16.0,76,0.00,,,0.00,meteohub,2013-04-25 20:48:00,
2013-04-25 13:53:00,57.9,49.6,30.14,WSW,237,9.0,16.0,74,0.00,,,0.00,meteohub,2013-04-25 20:53:00,
2013-04-25 13:58:00,57.6,49.3,30.14,SW,230,10.0,16.0,74,0.00,,,0.00,meteohub,2013-04-25 20:58:00,
2013-04-25 14:03:00,57.4,49.1,30.14,WSW,254,13.0,20.0,74,0.00,,,0.00,meteohub,2013-04-25 21:03:00,
2013-04-25 14:08:00,57.4,49.1,30.14,WSW,249,15.0,22.0,74,0.00,,,0.00,meteohub,2013-04-25 21:08:00,
2013-04-25 14:13:00,57.2,49.3,30.14,SW,235,9.0,22.0,75,0.00,,,0.00,meteohub,2013-04-25 21:13:00,
2013-04-25 14:18:00,57.7,49.5,30.14,WSW,249,17.0,22.0,74,0.00,,,0.00,meteohub,2013-04-25 21:18:00,
2013-04-25 14:23:00,58.3,49.6,30.14,SW,218,10.0,20.0,73,0.00,,,0.00,meteohub,2013-04-25 21:23:00,
2013-04-25 14:28:00,58.1,49.5,30.14,SW,236,12.0,21.0,73,0.00,,,0.00,meteohub,2013-04-25 21:28:00,
2013-04-25 14:33:00,57.7,49.5,30.14,SSW,203,14.0,21.0,74,0.00,,,0.00,meteohub,2013-04-25 21:33:00,
2013-04-25 14:38:00,57.6,49.3,30.14,WSW,245,18.0,21.0,74,0.00,,,0.00,meteohub,2013-04-25 21:38:00,
2013-04-25 14:43:00,57.9,49.6,30.14,SW,225,10.0,22.0,74,0.00,,,0.00,meteohub,2013-04-25 21:43:00,
2013-04-25 14:48:00,57.7,49.5,30.14,WSW,243,11.0,22.0,74,0.00,,,0.00,meteohub,2013-04-25 21:48:00,
2013-04-25 14:53:00,58.6,49.6,30.14,SW,215,14.0,22.0,72,0.00,,,0.00,meteohub,2013-04-25 21:53:00,
2013-04-25 14:58:00,57.9,49.3,30.14,WSW,245,14.0,21.0,73,0.00,,,0.00,meteohub,2013-04-25 21:58:00,
2013-04-25 15:03:00,58.3,49.6,30.14,WSW,251,12.0,21.0,73,0.00,,,0.00,meteohub,2013-04-25 22:03:00,
2013-04-25 15:08:00,58.5,49.5,30.14,WSW,243,14.0,21.0,72,0.00,,,0.00,meteohub,2013-04-25 22:08:00,
2013-04-25 15:13:00,58.3,49.3,30.14,SW,231,15.0,21.0,72,0.00,,,0.00,meteohub,2013-04-25 22:13:00,
2013-04-25 15:18:00,58.3,49.6,30.14,SSW,199,8.0,21.0,73,0.00,,,0.00,meteohub,2013-04-25 22:18:00,
2013-04-25 15:23:00,58.5,49.8,30.13,West,265,11.0,20.0,73,0.00,,,0.00,meteohub,2013-04-25 22:23:00,
2013-04-25 15:28:00,58.6,50.0,30.13,WSW,240,8.0,20.0,73,0.00,,,0.00,meteohub,2013-04-25 22:28:00,
2013-04-25 15:33:00,58.5,49.8,30.13,SW,226,14.0,19.0,73,0.00,,,0.00,meteohub,2013-04-25 22:33:00,
2013-04-25 15:38:00,57.9,49.3,30.13,SW,235,16.0,22.0,73,0.00,,,0.00,meteohub,2013-04-25 22:38:00,
2013-04-25 15:43:00,57.7,49.1,30.13,SW,235,11.0,22.0,73,0.00,,,0.00,meteohub,2013-04-25 22:43:00,
2013-04-25 15:48:00,57.7,49.1,30.13,WSW,241,14.0,21.0,73,0.00,,,0.00,meteohub,2013-04-25 22:48:00,
2013-04-25 15:53:00,58.6,50.4,30.13,SW,228,17.0,19.0,74,0.00,,,0.00,meteohub,2013-04-25 22:53:00,
2013-04-25 15:59:00,58.8,50.2,30.13,WSW,237,16.0,20.0,73,0.00,,,0.00,meteohub,2013-04-25 22:59:00,
2013-04-25 16:04:00,58.8,50.2,30.13,SW,227,10.0,20.0,73,0.00,,,0.00,meteohub,2013-04-25 23:04:00,
2013-04-25 16:09:00,58.5,49.5,30.13,WSW,254,10.0,21.0,72,0.00,,,0.00,meteohub,2013-04-25 23:09:00,
2013-04-25 16:14:00,59.2,50.2,30.13,WSW,242,10.0,21.0,72,0.00,,,0.00,meteohub,2013-04-25 23:14:00,
2013-04-25 16:19:00,59.5,50.2,30.12,WSW,256,6.0,17.0,71,0.00,,,0.00,meteohub,2013-04-25 23:19:00,
2013-04-25 16:24:00,59.5,49.8,30.12,West,264,13.0,17.0,70,0.00,,,0.00,meteohub,2013-04-25 23:24:00,
2013-04-25 16:29:00,59.5,49.8,30.12,WSW,245,12.0,18.0,70,0.00,,,0.00,meteohub,2013-04-25 23:29:00,
2013-04-25 16:34:00,59.0,49.6,30.12,WSW,242,8.0,18.0,71,0.00,,,0.00,meteohub,2013-04-25 23:34:00,
2013-04-25 16:39:00,59.2,49.8,30.12,WSW,242,8.0,18.0,71,0.00,,,0.00,meteohub,2013-04-25 23:39:00,
2013-04-25 16:44:00,59.0,49.6,30.12,West,272,11.0,17.0,71,0.00,,,0.00,meteohub,2013-04-25 23:44:00,
2013-04-25 16:49:00,59.2,49.8,30.12,WSW,253,15.0,17.0,71,0.00,,,0.00,meteohub,2013-04-25 23:49:00,
2013-04-25 16:54:00,59.2,49.8,30.12,West,262,11.0,17.0,71,0.00,,,0.00,meteohub,2013-04-25 23:54:00,
2013-04-25 16:59:00,59.4,50.0,30.12,SW,234,7.0,18.0,71,0.00,,,0.00,meteohub,2013-04-25 23:59:00,
2013-04-25 17:04:00,59.4,49.6,30.13,WSW,249,8.0,18.0,70,0.00,,,0.00,meteohub,2013-04-26 00:04:00,
2013-04-25 17:09:00,59.5,49.8,30.13,West,269,11.0,18.0,70,0.00,,,0.00,meteohub,2013-04-26 00:09:00,
2013-04-25 17:14:00,59.5,50.2,30.13,WSW,239,8.0,15.0,71,0.00,,,0.00,meteohub,2013-04-26 00:14:00,
2013-04-25 17:19:00,59.7,50.0,30.13,WSW,248,6.0,15.0,70,0.00,,,0.00,meteohub,2013-04-26 00:19:00,
2013-04-25 17:24:00,59.4,49.6,30.13,West,262,6.0,15.0,70,0.00,,,0.00,meteohub,2013-04-26 00:24:00,
2013-04-25 17:29:00,59.2,49.5,30.13,WSW,243,11.0,15.0,70,0.00,,,0.00,meteohub,2013-04-26 00:29:00,
2013-04-25 17:34:00,58.6,49.3,30.13,West,262,11.0,16.0,71,0.00,,,0.00,meteohub,2013-04-26 00:34:00,
2013-04-25 17:40:00,58.6,49.6,30.13,West,263,11.0,16.0,72,0.00,,,0.00,meteohub,2013-04-26 00:40:00,
2013-04-25 17:45:00,58.6,49.3,30.13,WSW,253,11.0,16.0,71,0.00,,,0.00,meteohub,2013-04-26 00:45:00,
2013-04-25 17:50:00,58.8,49.5,30.13,WSW,249,10.0,16.0,71,0.00,,,0.00,meteohub,2013-04-26 00:50:00,
2013-04-25 17:55:00,59.0,49.6,30.13,West,262,9.0,16.0,71,0.00,,,0.00,meteohub,2013-04-26 00:55:00,
2013-04-25 18:00:00,58.5,49.1,30.13,West,264,12.0,15.0,71,0.00,,,0.00,meteohub,2013-04-26 01:00:00,
2013-04-25 18:05:00,57.9,48.9,30.13,West,260,10.0,15.0,72,0.00,,,0.00,meteohub,2013-04-26 01:05:00,
2013-04-25 18:10:00,57.7,49.1,30.13,WSW,255,16.0,17.0,73,0.00,,,0.00,meteohub,2013-04-26 01:10:00,
2013-04-25 18:15:00,57.7,49.1,30.14,West,266,8.0,17.0,73,0.00,,,0.00,meteohub,2013-04-26 01:15:00,
2013-04-25 18:20:00,57.7,49.1,30.13,West,263,9.0,17.0,73,0.00,,,0.00,meteohub,2013-04-26 01:20:00,
2013-04-25 18:25:00,57.6,48.9,30.13,West,264,10.0,17.0,73,0.00,,,0.00,meteohub,2013-04-26 01:25:00,
2013-04-25 18:30:00,58.1,49.5,30.13,SW,231,6.0,17.0,73,0.00,,,0.00,meteohub,2013-04-26 01:30:00,
2013-04-25 18:35:00,57.7,49.1,30.14,WSW,252,12.0,16.0,73,0.00,,,0.00,meteohub,2013-04-26 01:35:00,
2013-04-25 18:40:00,57.2,48.9,30.13,West,268,12.0,16.0,74,0.00,,,0.00,meteohub,2013-04-26 01:40:00,
2013-04-25 18:45:00,57.2,48.9,30.13,WSW,251,9.0,16.0,74,0.00,,,0.00,meteohub,2013-04-26 01:45:00,
2013-04-25 18:50:00,57.0,48.7,30.13,WSW,241,10.0,16.0,74,0.00,,,0.00,meteohub,2013-04-26 01:50:00,
2013-04-25 18:55:00,56.8,48.6,30.14,WSW,256,9.0,14.0,74,0.00,,,0.00,meteohub,2013-04-26 01:55:00,
2013-04-25 19:00:00,56.8,48.6,30.13,West,264,10.0,15.0,74,0.00,,,0.00,meteohub,2013-04-26 02:00:00,
2013-04-25 19:05:00,56.5,48.7,30.13,West,262,10.0,15.0,75,0.00,,,0.00,meteohub,2013-04-26 02:05:00,
2013-04-25 19:10:00,56.1,48.7,30.13,WSW,239,9.0,14.0,76,0.00,,,0.00,meteohub,2013-04-26 02:10:00,
2013-04-25 19:15:00,55.9,48.6,30.14,WSW,241,6.0,13.0,76,0.00,,,0.00,meteohub,2013-04-26 02:15:00,
2013-04-25 19:20:00,55.9,48.6,30.14,SW,236,10.0,13.0,76,0.00,,,0.00,meteohub,2013-04-26 02:20:00,
2013-04-25 19:25:00,55.6,48.6,30.14,WSW,237,10.0,13.0,77,0.00,,,0.00,meteohub,2013-04-26 02:25:00,
2013-04-25 19:30:00,55.6,48.9,30.14,WSW,241,9.0,13.0,78,0.00,,,0.00,meteohub,2013-04-26 02:30:00,
2013-04-25 19:35:00,55.2,48.6,30.14,SW,220,10.0,13.0,78,0.00,,,0.00,meteohub,2013-04-26 02:35:00,
2013-04-25 19:40:00,55.0,48.4,30.14,WSW,242,10.0,13.0,78,0.00,,,0.00,meteohub,2013-04-26 02:40:00,
2013-04-25 19:45:00,54.9,48.6,30.14,WSW,238,11.0,13.0,79,0.00,,,0.00,meteohub,2013-04-26 02:45:00,
2013-04-25 19:50:00,54.7,48.4,30.14,WSW,258,9.0,13.0,79,0.00,,,0.00,meteohub,2013-04-26 02:50:00,
2013-04-25 19:56:00,54.7,48.4,30.15,WSW,250,9.0,13.0,79,0.00,,,0.00,meteohub,2013-04-26 02:56:00,
2013-04-25 20:01:00,54.5,48.2,30.15,WSW,251,7.0,13.0,79,0.00,,,0.00,meteohub,2013-04-26 03:01:00,
2013-04-25 20:06:00,54.3,48.2,30.15,WSW,240,6.0,13.0,80,0.00,,,0.00,meteohub,2013-04-26 03:06:00,
2013-04-25 20:11:00,54.1,48.0,30.15,WSW,241,8.0,12.0,80,0.00,,,0.00,meteohub,2013-04-26 03:11:00,
2013-04-25 20:16:00,54.1,48.4,30.15,WSW,241,8.0,12.0,81,0.00,,,0.00,meteohub,2013-04-26 03:16:00,
2013-04-25 20:21:00,54.0,48.2,30.15,WSW,252,7.0,13.0,81,0.00,,,0.00,meteohub,2013-04-26 03:21:00,
2013-04-25 20:26:00,54.0,48.2,30.16,WSW,242,11.0,13.0,81,0.00,,,0.00,meteohub,2013-04-26 03:26:00,
2013-04-25 20:31:00,53.8,48.4,30.16,WSW,250,9.0,12.0,82,0.00,,,0.00,meteohub,2013-04-26 03:31:00,
2013-04-25 20:36:00,53.6,48.2,30.16,SW,234,6.0,12.0,82,0.00,,,0.00,meteohub,2013-04-26 03:36:00,
2013-04-25 20:41:00,53.4,48.0,30.16,SW,225,8.0,12.0,82,0.00,,,0.00,meteohub,2013-04-26 03:41:00,
2013-04-25 20:46:00,53.4,48.0,30.17,SW,235,5.0,13.0,82,0.00,,,0.00,meteohub,2013-04-26 03:46:00,
2013-04-25 20:51:00,53.4,48.0,30.17,WSW,249,6.0,13.0,82,0.00,,,0.00,meteohub,2013-04-26 03:51:00,
2013-04-25 20:56:00,53.2,47.8,30.17,WSW,247,8.0,13.0,82,0.00,,,0.00,meteohub,2013-04-26 03:56:00,
2013-04-25 21:01:00,53.2,48.2,30.17,WSW,253,5.0,11.0,83,0.00,,,0.00,meteohub,2013-04-26 04:01:00,
2013-04-25 21:02:00,53.2,48.2,30.17,WSW,245,8.0,11.0,83,0.00,,,0.00,meteohub,2013-04-26 04:02:00,
2013-04-25 21:04:00,53.2,48.2,30.17,WSW,256,6.0,11.0,83,0.00,,,0.00,meteohub,2013-04-26 04:04:00,
2013-04-25 21:09:00,53.2,48.2,30.17,West,262,8.0,12.0,83,0.00,,,0.00,meteohub,2013-04-26 04:09:00,
2013-04-25 21:14:00,53.1,48.0,30.17,West,259,11.0,12.0,83,0.00,,,0.00,meteohub,2013-04-26 04:14:00,
2013-04-25 21:19:00,53.1,48.0,30.17,West,262,7.0,12.0,83,0.00,,,0.00,meteohub,2013-04-26 04:19:00,
2013-04-25 21:24:00,53.1,48.0,30.18,WSW,251,6.0,12.0,83,0.00,,,0.00,meteohub,2013-04-26 04:24:00,
2013-04-25 21:29:00,53.1,48.0,30.18,WSW,241,9.0,12.0,83,0.00,,,0.00,meteohub,2013-04-26 04:29:00,
2013-04-25 21:34:00,53.1,48.0,30.18,West,262,4.0,12.0,83,0.00,,,0.00,meteohub,2013-04-26 04:34:00,
2013-04-25 21:39:00,52.9,47.8,30.18,WSW,245,5.0,11.0,83,0.00,,,0.00,meteohub,2013-04-26 04:39:00,
2013-04-25 21:44:00,52.9,47.8,30.18,WSW,256,4.0,10.0,83,0.00,,,0.00,meteohub,2013-04-26 04:44:00,
2013-04-25 21:49:00,52.9,47.8,30.18,WSW,252,3.0,8.0,83,0.00,,,0.00,meteohub,2013-04-26 04:49:00,
2013-04-25 21:54:00,52.9,47.8,30.18,West,266,5.0,8.0,83,0.00,,,0.00,meteohub,2013-04-26 04:54:00,
2013-04-25 21:59:00,52.9,47.8,30.18,WSW,256,3.0,8.0,83,0.00,,,0.00,meteohub,2013-04-26 04:59:00,
2013-04-25 22:04:00,52.9,47.5,30.18,West,264,5.0,8.0,82,0.00,,,0.00,meteohub,2013-04-26 05:04:00,
2013-04-25 22:09:00,52.5,47.1,30.19,WSW,256,8.0,8.0,82,0.00,,,0.00,meteohub,2013-04-26 05:09:00,
2013-04-25 22:14:00,52.5,47.1,30.19,West,264,8.0,10.0,82,0.00,,,0.00,meteohub,2013-04-26 05:14:00,
2013-04-25 22:19:00,52.3,46.9,30.19,West,274,5.0,11.0,82,0.00,,,0.00,meteohub,2013-04-26 05:19:00,
2013-04-25 22:24:00,52.3,46.9,30.19,WSW,253,5.0,12.0,82,0.00,,,0.00,meteohub,2013-04-26 05:24:00,
2013-04-25 22:29:00,52.3,46.9,30.19,WSW,241,7.0,12.0,82,0.00,,,0.00,meteohub,2013-04-26 05:29:00,
2013-04-25 22:34:00,52.3,46.9,30.19,West,259,6.0,12.0,82,0.00,,,0.00,meteohub,2013-04-26 05:34:00,
2013-04-25 22:39:00,52.3,46.9,30.19,West,264,5.0,10.0,82,0.00,,,0.00,meteohub,2013-04-26 05:39:00,
2013-04-25 22:44:00,52.2,46.8,30.18,West,260,6.0,9.0,82,0.00,,,0.00,meteohub,2013-04-26 05:44:00,
2013-04-25 22:49:00,52.2,46.8,30.18,West,266,7.0,9.0,82,0.00,,,0.00,meteohub,2013-04-26 05:49:00,
2013-04-25 22:54:00,52.2,46.8,30.19,West,266,4.0,9.0,82,0.00,,,0.00,meteohub,2013-04-26 05:54:00,
2013-04-25 22:59:00,52.2,46.8,30.19,West,266,2.0,11.0,82,0.00,,,0.00,meteohub,2013-04-26 05:59:00,
2013-04-25 23:04:00,52.0,46.6,30.18,West,266,2.0,11.0,82,0.00,,,0.00,meteohub,2013-04-26 06:04:00,
2013-04-25 23:09:00,52.0,46.9,30.19,West,266,0.0,8.0,83,0.00,,,0.00,meteohub,2013-04-26 06:09:00,
2013-04-25 23:15:00,52.0,46.9,30.19,West,266,0.0,4.0,83,0.00,,,0.00,meteohub,2013-04-26 06:15:00,
2013-04-25 23:20:00,52.0,46.9,30.19,West,266,0.0,3.0,83,0.00,,,0.00,meteohub,2013-04-26 06:20:00,
2013-04-25 23:25:00,51.8,47.1,30.19,West,266,2.0,3.0,84,0.00,,,0.00,meteohub,2013-04-26 06:25:00,
2013-04-25 23:30:00,51.6,46.9,30.19,West,266,2.0,3.0,84,0.00,,,0.00,meteohub,2013-04-26 06:30:00,
2013-04-25 23:35:00,51.6,46.9,30.19,WSW,253,1.0,3.0,84,0.00,,,0.00,meteohub,2013-04-26 06:35:00,
2013-04-25 23:40:00,51.4,46.8,30.19,WSW,252,3.0,5.0,84,0.00,,,0.00,meteohub,2013-04-26 06:40:00,
2013-04-25 23:45:00,51.4,46.8,30.19,WSW,252,3.0,5.0,84,0.00,,,0.00,meteohub,2013-04-26 06:45:00,
2013-04-25 23:50:00,51.4,46.8,30.19,WSW,253,2.0,5.0,84,0.00,,,0.00,meteohub,2013-04-26 06:50:00,
2013-04-25 23:55:00,51.3,46.6,30.19,WSW,253,1.0,4.0,84,0.00,,,0.00,meteohub,2013-04-26 06:55:00,